Tracking 25707 objects as of 29-Jun-2022
HD Live streaming from Space Station
objects crossing your sky now

STARLINK-3920

Track STARLINK-3920 now!
10-day predictions
STARLINK-3920 is classified as:


NORAD ID: 52575
Int'l Code: 2022-051AR
Perigee: 356.8 km
Apogee: 359.6 km
Inclination: 53.2 °
Period: 91.6 minutes
Semi major axis: 6729 km
RCS: Unknown
Launch date: May 13, 2022
Source: United States (US)
Launch site: AIR FORCE WESTERN TEST RANGE (AFWTR)
aabbcc
Your satellite tracking list
Your tracking list is empty




NASA's NSSDC Master Catalog

Two Line Element Set (TLE):
1 52575U 22051AR  22180.58334491 -.01054202  00000-0 -85097-2 0  9991
2 52575  53.2174  62.1494 0002130  21.4015 232.9954 15.72743582  1305
Source of the keplerian elements: AFSPC